Weather Roundup
Issued by NWS Springfield, MO

Home | Current Version | Previous Version | Text Only | Print | Product List | Glossary On
Versions: 1 2 3 4 5 6 7 8 9 10 11 12 13 14 15 16 17 18 19 20 21 22 23 24 25 26 27 28 29 30 31 32 33 34 35 36 37 38 39 40 41 42 43 44 45 46 47 48 49 50
000
NZUS99 KSGF 070207
HRRSGF

HOURLY WEATHER
NATIONAL WEATHER SERVICE SPRINGFIELD MO
900 PM CDT MON JUL 06 2015

......SGF CWA......

CITY           SKY/WX    TMP DP  RH WIND       PRES   REMARKS
SPRINGFIELD    CLOUDY    78  74  87 S9        29.92F
JOPLIN         CLOUDY    80  73  79 S13       29.90F
WEST PLAINS    CLOUDY    78  71  79 S7        29.97F
ROLLA          CLOUDY    78  71  79 S10       29.90F
OSAGE BEACH    CLOUDY    81  70  69 S8        29.89S
BRANSON        CLOUDY    77  72  83 S8        29.97F

......SURROUNDING SGF CWA......

CITY           SKY/WX    TMP DP  RH WIND       PRES   REMARKS
CHANUTE        TSTM      71  71 100 NE6       29.92R
PARSONS        TSTM      73  72  96 NW3       29.93F FOG
COFFEYVILLE    CLOUDY    83  74  74 VRB6      29.91R
EMPORIA        LGT RAIN  70  69  97 E3        29.90S
GROVE OK       CLOUDY    81  73  78 S7        29.92S
ROGERS AR      CLOUDY    79  71  76 S10       29.96F
SILOAM SPRINGS CLOUDY    79  68  69 S7        29.95F
HARRISON AR    CLOUDY    76  73  91 S3        29.98S
NEAR YELLVILLE   N/A     81  72  74 S6        29.94R

......KANSAS AND MISSOURI......

CITY           SKY/WX    TMP DP  RH WIND       PRES   REMARKS
KANSAS CTY INT CLOUDY    71  70  96 CALM      29.88S
DOWNTOWN KC    CLOUDY    72  71  97 CALM      29.87R
COLUMBIA       CLOUDY    80  74  81 S6        29.87S
SEDALIA        LGT RAIN  74  70  87 N17G23    29.89R
ST JOSEPH      LGT RAIN  73  72  96 MISG      29.89R
ST LOUIS       CLOUDY    84  73  69 S9        29.91R HX  90
SPIRIT OF STL  CLOUDY    82  74  76 VRB6      29.89S
KIRKSVILLE     LGT RAIN  73  71  93 CALM      29.90S
WICHITA        LGT RAIN  75  71  87 N12       29.89R FOG
TOPEKA         LGT RAIN  72  72 100 NW5       29.90S
OLATHE         LGT RAIN  71  70  96 W7        29.89R

......TENNESSEE......

CITY           SKY/WX    TMP DP  RH WIND       PRES   REMARKS
MEMPHIS        MOCLDY    81  73  76 S8        30.02R
NASHVILLE      PTCLDY    78  72  81 S3        30.05R

......ARKANSAS.......

CITY           SKY/WX    TMP DP  RH WIND       PRES   REMARKS
FAYETTEVILLE   MOCLDY    77  72  84 S8        29.95F
FT SMITH       CLOUDY    82  70  66 S3        29.93F
LITTLE ROCK    MOCLDY    81  73  76 S7        29.97S

......OKLAHOMA.......

CITY           SKY/WX    TMP DP  RH WIND       PRES   REMARKS
TULSA          CLOUDY    85  72  65 S15       29.87R HX  91
PONCA CITY     TSTM      72  70  93 S5        29.91R FOG
MCALESTER      PTCLDY    82  71  69 S7        29.92F
OKLAHOMA CITY  CLOUDY    82  71  69 S6        29.90R

......IOWA............

CITY           SKY/WX    TMP DP  RH WIND       PRES   REMARKS
DES MOINES     CLOUDY    71  60  68 N13       29.93R HAZE
QUAD CITIES    HVY RAIN  71  69  93 S8        29.86F FOG

......ILLINOIS........

CITY           SKY/WX    TMP DP  RH WIND       PRES   REMARKS
QUINCY         LGT RAIN  80  75  84 S6        29.86F
CHICAGO        TSTM      73  70  90 W21G26    29.88R FOG




USA.gov is the U.S. government's official web portal to all federal, state and local government web resources and services.